Vorticity
12 8 14 9 14 11 10 11 13 11 8 9 8 7 10 6 4 9 10 14 10 9 5 6 5 2 5 6 5 -4 -3 2 8 8 6 5 4 4 7 5 5 5 5 -0
14 9 15 10 8 10 10 10 10 9 9 11 10 10 10 8 9 10 11 5 4 4 5 3 4 6 5 2 -1 1 6 6 6 6 6 4 4 5 5 7 6 7 3 2
11 8 13 10 10 8 9 9 9 12 12 10 11 9 9 9 15 11 10 6 2 1 1 2 9 5 6 2 2 6 3 4 9 4 3 3 7 7 6 5 6 9 2 4
11 9 9 11 8 7 8 7 8 12 14 11 11 10 19 12 6 5 5 2 3 7 11 10 9 6 2 6 5 6 4 10 6 3 1 7 7 4 5 8 12 -2 4 5
9 8 7 6 9 10 8 8 6 5 8 12 9 8 19 13 20 14 9 5 2 4 11 9 7 8 7 4 5 8 4 12 2 5 5 5 6 6 7 6 1 6 6 6
4 8 8 6 6 6 3 5 5 6 5 5 6 9 9 10 11 1 2 -0 4 5 5 5 2 6 7 6 8 5 6 9 4 3 4 6 9 7 -1 4 5 6 7 3
-3 4 7 6 9 8 3 5 8 9 8 7 4 9 11 6 2 9 10 7 9 8 9 7 4 1 4 7 9 9 9 5 2 3 -1 9 8 2 1 6 7 8 6 2
2 15 14 7 8 8 7 7 4 3 2 5 10 12 14 8 7 9 10 8 5 5 4 5 7 8 8 11 9 9 8 6 3 1 4 15 3 3 5 9 8 6 3 5
8 9 12 12 5 5 9 5 7 8 7 7 7 6 8 6 4 5 8 8 9 11 10 3 0 5 5 4 1 7 9 8 11 10 10 8 3 7 8 7 10 6 7 6
8 14 5 8 8 4 3 8 5 6 5 6 5 8 10 12 8 3 8 6 2 4 7 8 4 3 8 5 6 9 9 9 4 7 8 4 5 7 8 9 7 6 3 2
2 8 14 3 5 13 8 2 5 5 2 2 4 -0 6 -1 6 6 16 15 9 -3 -1 4 5 1 6 7 2 4 2 2 6 6 3 6 7 7 8 7 7 3 3 3
6 2 13 8 4 4 15 7 3 5 3 5 6 6 7 6 2 4 0 4 9 4 5 1 2 2 3 5 6 5 6 5 6 6 9 7 6 5 5 4 5 2 4 6
9 10 17 12 7 -1 13 17 11 5 5 7 4 2 3 8 4 5 2 8 9 7 9 2 -1 2 8 7 6 8 7 13 10 9 9 5 4 3 5 4 3 4 5 12
2 10 11 7 7 9 -1 15 12 9 8 4 10 6 6 8 8 4 9 -0 -2 3 7 4 1 1 7 6 13 10 12 7 9 11 4 1 1 4 10 3 3 6 10 13
14 8 6 9 8 8 -3 14 6 12 13 9 5 1 -3 4 10 5 5 14 12 9 6 6 3 6 6 5 6 10 10 11 10 1 5 6 10 8 6 8 7 9 12 11
23 12 3 10 18 4 13 -2 12 -5 3 8 17 12 15 7 9 16 4 -4 1 -3 10 8 3 6 12 13 19 16 14 9 13 7 9 7 9 8 10 9 10 8 8 6
0 11 -4 4 3 12 6 6 3 -1 -3 6 9 -2 0 16 10 -0 -6 -6 8 9 9 6 11 13 6 13 4 18 11 4 3 2 1 3 9 12 11 11 10 7 6 7
5 3 5 -1 7 9 0 8 6 10 16 12 8 9 7 7 7 6 5 10 12 9 17 26 21 17 19 10 8 8 11 -3 8 2 6 8 10 8 8 9 7 5 8 6
3 4 6 2 5 4 -1 -0 4 2 1 -1 12 1 3 13 15 12 13 10 11 10 12 14 12 8 3 7 9 14 5 16 2 6 3 8 5 10 9 13 5 8 6 9
2 8 7 6 5 6 -13 2 6 10 11 7 11 8 9 8 3 2 7 14 10 16 12 15 7 7 2 7 12 13 11 14 14 7 11 5 10 10 11 11 7 8 8 13
21 13 -5 15 12 5 9 -0 2 3 6 16 8 4 14 6 4 3 -3 20 10 7 6 3 9 11 15 15 14 3 14 2 13 12 5 14 4 10 10 7 8 8 12 16
-5 4 22 2 15 4 10 8 5 -8 1 -1 8 4 -1 8 10 -6 11 17 9 10 12 8 9 7 12 13 5 10 9 15 8 2 8 12 7 10 7 10 8 12 16 16
-0 12 19 15 20 9 4 -21 4 12 5 2 8 7 8 13 8 6 14 7 11 11 8 9 9 11 11 11 14 13 15 11 4 5 6 10 10 9 6 7 11 15 16 9
23 3 -7 22 12 7 -1 2 7 10 7 0 4 9 11 5 9 16 16 14 11 12 13 14 14 13 12 10 9 12 10 10 1 3 4 6 13 11 8 11 16 16 10 17
-24 17 17 -12 -5 -7 8 14 -4 15 15 9 3 2 5 10 12 9 20 20 20 12 13 19 11 6 11 8 9 13 8 3 7 10 6 13 12 13 16 15 16 10 21 27
-1 16 6 21 24 7 -1 6 4 5 7 0 1 6 12 8 7 12 16 10 8 9 8 5 3 8 12 8 5 7 10 9 8 7 11 12 12 12 14 13 11 24 29 22
Height
5824 5822 5820 5819 5821 5820 5820 5821 5822 5820 5820 5822 5823 5824 5825 5825 5826 5827 5828 5828 5828 5828 5828 5828 5828 5828 5828 5828 5827 5827 5826 5824 5823 5821 5818 5815 5811 5807 5805 5802 5797 5794 5792 5789
5821 5818 5817 5816 5816 5816 5816 5816 5816 5815 5815 5817 5818 5819 5820 5819 5821 5822 5823 5824 5823 5824 5824 5824 5824 5824 5824 5823 5822 5821 5819 5818 5815 5813 5809 5809 5804 5801 5798 5793 5790 5786 5783 5780
5816 5815 5813 5812 5812 5812 5811 5810 5810 5811 5812 5812 5814 5815 5814 5813 5815 5816 5819 5819 5819 5819 5819 5820 5820 5820 5819 5819 5817 5815 5812 5811 5809 5805 5803 5801 5797 5793 5789 5785 5781 5779 5776 5771
5813 5811 5809 5808 5807 5807 5806 5806 5805 5805 5807 5808 5809 5810 5810 5807 5809 5811 5814 5815 5814 5815 5814 5814 5814 5814 5813 5812 5810 5809 5807 5804 5800 5796 5795 5793 5789 5783 5780 5775 5772 5768 5764 5759
5809 5808 5806 5804 5804 5803 5802 5802 5801 5800 5800 5800 5803 5803 5805 5804 5806 5807 5808 5808 5807 5807 5807 5807 5806 5805 5804 5803 5801 5799 5796 5793 5790 5786 5784 5782 5776 5772 5769 5766 5761 5757 5750 5745
5803 5802 5801 5800 5800 5799 5797 5797 5795 5795 5796 5796 5796 5797 5802 5803 5803 5801 5801 5800 5800 5799 5798 5798 5798 5797 5795 5793 5791 5787 5785 5784 5782 5778 5775 5771 5768 5764 5759 5755 5750 5744 5739 5732
5796 5796 5795 5795 5794 5794 5793 5792 5791 5790 5790 5792 5789 5790 5795 5800 5799 5797 5795 5794 5793 5791 5790 5789 5787 5786 5784 5782 5781 5780 5779 5777 5774 5771 5766 5760 5756 5753 5748 5743 5738 5731 5725 5718
5788 5788 5788 5788 5787 5787 5788 5787 5786 5781 5782 5783 5780 5783 5790 5791 5791 5789 5787 5785 5783 5783 5782 5781 5780 5778 5777 5776 5774 5772 5770 5767 5765 5759 5755 5751 5747 5741 5736 5730 5725 5718 5712 5706
5780 5780 5780 5781 5780 5779 5780 5780 5780 5774 5775 5772 5775 5776 5780 5784 5783 5782 5781 5780 5778 5776 5773 5772 5771 5769 5768 5766 5764 5763 5760 5756 5751 5749 5745 5740 5734 5730 5724 5719 5714 5707 5700 5694
5770 5770 5773 5772 5772 5773 5771 5771 5773 5772 5765 5763 5764 5765 5765 5773 5775 5773 5773 5772 5770 5767 5764 5762 5762 5759 5757 5756 5754 5750 5745 5743 5738 5734 5730 5726 5721 5716 5711 5706 5701 5693 5687 5681
5762 5762 5763 5763 5767 5766 5762 5759 5764 5763 5759 5754 5752 5754 5752 5757 5764 5763 5767 5764 5761 5756 5753 5751 5749 5748 5747 5743 5740 5738 5734 5730 5727 5722 5716 5712 5709 5704 5698 5691 5685 5679 5671 5665
5753 5749 5748 5752 5751 5756 5754 5752 5753 5752 5753 5748 5741 5741 5747 5748 5749 5752 5756 5755 5752 5745 5741 5741 5739 5738 5735 5732 5728 5723 5720 5716 5711 5708 5705 5700 5694 5688 5683 5677 5670 5664 5657 5649
5743 5736 5735 5735 5741 5746 5743 5743 5743 5740 5738 5735 5736 5732 5734 5738 5740 5745 5745 5743 5738 5733 5732 5728 5727 5726 5723 5719 5715 5712 5707 5703 5700 5696 5690 5684 5679 5672 5667 5661 5655 5648 5640 5633
5727 5727 5723 5723 5728 5731 5731 5731 5731 5731 5725 5724 5719 5726 5729 5728 5730 5729 5727 5725 5720 5718 5718 5715 5712 5709 5706 5703 5699 5695 5692 5688 5684 5680 5675 5669 5663 5659 5653 5645 5639 5633 5625 5618
5712 5710 5714 5712 5714 5713 5712 5719 5720 5715 5716 5715 5717 5713 5719 5723 5721 5713 5715 5712 5707 5706 5707 5702 5699 5696 5692 5689 5685 5682 5678 5674 5670 5666 5661 5655 5650 5644 5637 5631 5623 5617 5610 5603
5698 5697 5699 5697 5701 5700 5699 5701 5698 5704 5710 5706 5707 5698 5712 5715 5706 5705 5702 5697 5694 5696 5693 5688 5685 5683 5679 5676 5672 5669 5666 5661 5657 5652 5646 5642 5637 5629 5622 5614 5608 5602 5595 5588
5684 5684 5686 5681 5691 5691 5683 5685 5689 5691 5691 5696 5693 5697 5693 5694 5695 5692 5685 5684 5686 5680 5676 5674 5671 5668 5664 5660 5658 5655 5651 5647 5643 5638 5632 5626 5620 5613 5606 5600 5593 5585 5580 5574
5672 5674 5675 5671 5673 5671 5679 5677 5669 5676 5683 5680 5679 5680 5681 5680 5676 5672 5669 5673 5667 5664 5663 5659 5655 5652 5648 5646 5642 5639 5635 5631 5628 5622 5617 5611 5605 5598 5591 5585 5578 5571 5565 5558
5660 5659 5658 5659 5657 5661 5658 5661 5664 5662 5668 5667 5667 5667 5665 5662 5657 5657 5658 5653 5652 5649 5645 5642 5639 5637 5634 5632 5628 5624 5620 5615 5612 5607 5601 5596 5591 5585 5577 5570 5563 5556 5548 5539
5643 5643 5641 5642 5639 5641 5653 5650 5650 5650 5646 5652 5654 5650 5646 5644 5645 5649 5641 5642 5638 5634 5631 5628 5625 5622 5619 5615 5611 5608 5604 5600 5595 5591 5586 5580 5575 5569 5563 5555 5546 5538 5530 5522
5624 5625 5621 5627 5621 5624 5644 5630 5630 5633 5645 5633 5627 5628 5632 5631 5632 5630 5629 5625 5622 5618 5616 5612 5609 5605 5602 5598 5594 5591 5587 5583 5578 5573 5569 5564 5559 5553 5545 5538 5530 5522 5514 5507
5605 5606 5607 5609 5603 5604 5627 5619 5614 5624 5616 5615 5614 5612 5612 5611 5610 5611 5608 5604 5602 5599 5596 5593 5590 5588 5584 5581 5578 5574 5570 5565 5561 5557 5552 5548 5542 5535 5528 5521 5513 5506 5499 5492
5580 5588 5590 5591 5587 5600 5599 5596 5597 5599 5597 5597 5595 5594 5593 5593 5592 5589 5588 5585 5583 5581 5576 5573 5571 5568 5565 5562 5560 5557 5553 5549 5544 5538 5534 5529 5524 5518 5510 5504 5497 5491 5484 5478
5562 5569 5567 5567 5573 5577 5575 5575 5578 5577 5579 5577 5576 5574 5574 5573 5572 5570 5568 5566 5564 5561 5557 5555 5553 5551 5548 5545 5541 5539 5535 5530 5527 5523 5517 5512 5506 5500 5494 5486 5481 5476 5470 5463
5549 5551 5550 5546 5550 5552 5553 5555 5556 5557 5556 5555 5555 5556 5554 5553 5553 5549 5548 5546 5545 5542 5539 5536 5533 5532 5530 5526 5523 5520 5517 5512 5509 5504 5499 5494 5489 5483 5478 5472 5467 5461 5455 5450
5534 5533 5530 5524 5528 5528 5530 5532 5534 5535 5536 5534 5534 5534 5534 5533 5532 5531 5529 5527 5525 5523 5521 5519 5516 5512 5511 5508 5506 5503 5500 5495 5492 5487 5482 5477 5472 5469 5462 5458 5453 5447 5442 5438